| time (UTC) | temp C | wind direction | speed KPH | gust KPH | rain 1hr cm | rain 24hr cm | rain mn cm | humidity % | barometer mb |
| 20260903103046 | 25 | 274 | 0.0 | 0.0 | 0.00 | 0.00 | 0.00 | 69 | 1006.7 |
| 20260903101543 | 25 | 272 | 0.0 | 0.0 | 0.00 | 0.00 | 0.00 | 68 | 1006.8 |
| 20260903100041 | 25 | 272 | 0.0 | 0.0 | 0.00 | 0.00 | 0.00 | 68 | 1006.8 |
| 20260903094536 | 25 | 272 | 0.0 | 1.6 | 0.00 | 0.00 | 0.00 | 71 | 1006.8 |
| 20260903093100 | 25 | 272 | 0.0 | 0.0 | 0.00 | 0.00 | 0.00 | 73 | 1006.8 |
| 20260903091534 | 25 | 272 | 0.0 | 0.0 | 0.00 | 0.00 | 0.00 | 72 | 1006.8 |
| 20260903090037 | 25 | 272 | 0.0 | 0.0 | 0.00 | 0.00 | 0.00 | 71 | 1006.7 |
| 20260903084530 | 25 | 272 | 0.0 | 0.0 | 0.00 | 0.00 | 0.00 | 71 | 1006.8 |
| 20260903083030 | 25 | 124 | 0.0 | 0.0 | 0.00 | 0.00 | 0.00 | 71 | 1006.8 |
| 20260903081534 | 25 | 124 | 0.0 | 0.0 | 0.00 | 0.00 | 0.00 | 69 | 1006.9 |
| 20260903080023 | 26 | 124 | 0.0 | 0.0 | 0.00 | 0.00 | 0.00 | 62 | 1006.9 |
| 20260903074526 | 26 | 116 | 0.0 | 3.2 | 0.00 | 0.00 | 0.00 | 61 | 1007.0 |
| 20260903073023 | 26 | 97 | 0.0 | 1.6 | 0.00 | 0.00 | 0.00 | 61 | 1007.0 |
| 20260903071517 | 27 | 98 | 1.6 | 6.4 | 0.00 | 0.00 | 0.00 | 58 | 1007.0 |
| 20260903070017 | 27 | 315 | 0.0 | 1.6 | 0.00 | 0.00 | 0.00 | 58 | 1006.7 |
| 20260903064513 | 27 | 300 | 0.0 | 0.0 | 0.00 | 0.00 | 0.00 | 58 | 1006.6 |
| 20260903063013 | 27 | 291 | 0.0 | 1.6 | 0.00 | 0.00 | 0.00 | 56 | 1006.7 |
| 20260903061512 | 27 | 291 | 0.0 | 1.6 | 0.00 | 0.00 | 0.00 | 55 | 1006.8 |
| 20260903060015 | 27 | 291 | 0.0 | 0.0 | 0.00 | 0.00 | 0.00 | 57 | 1006.8 |
| 20260903054513 | 27 | 291 | 0.0 | 0.0 | 0.00 | 0.00 | 0.00 | 55 | 1006.9 |
| 20260903053011 | 27 | 291 | 0.0 | 3.2 | 0.00 | 0.00 | 0.00 | 55 | 1007.0 |
| 20260903051511 | 26 | 306 | 3.2 | 6.4 | 0.00 | 0.00 | 0.00 | 57 | 1007.0 |
| 20260903050010 | 27 | 98 | 0.0 | 0.0 | 0.00 | 0.00 | 0.00 | 59 | 1006.9 |
| 20260903044510 | 27 | 98 | 0.0 | 0.0 | 0.00 | 0.00 | 0.00 | 55 | 1006.9 |
| 20260903043015 | 27 | 98 | 0.0 | 0.0 | 0.00 | 0.00 | 0.00 | 54 | 1006.7 |
| 20260903041517 | 27 | 98 | 0.0 | 0.0 | 0.00 | 0.00 | 0.00 | 57 | 1006.6 |
| 20260903040009 | 28 | 49 | 0.0 | 1.6 | 0.00 | 0.00 | 0.00 | 53 | 1006.6 |
| 20260903034513 | 28 | 107 | 0.0 | 0.0 | 0.00 | 0.00 | 0.00 | 54 | 1006.5 |
| 20260903033007 | 28 | 107 | 0.0 | 1.6 | 0.00 | 0.00 | 0.00 | 49 | 1006.4 |
| 20260903031506 | 28 | 83 | 0.0 | 1.6 | 0.00 | 0.00 | 0.00 | 52 | 1006.1 |
| 20260903030006 | 27 | 334 | 0.0 | 0.0 | 0.00 | 0.00 | 0.00 | 53 | 1005.8 |
| 20260903024505 | 27 | 334 | 0.0 | 0.0 | 0.00 | 0.00 | 0.00 | 54 | 1005.7 |
| 20260903023020 | 28 | 334 | 0.0 | 0.0 | 0.00 | 0.00 | 0.00 | 53 | 1005.5 |
| 20260903021505 | 28 | 334 | 0.0 | 0.0 | 0.00 | 0.00 | 0.00 | 50 | 1005.3 |
| 20260903020004 | 28 | 334 | 0.0 | 0.0 | 0.00 | 0.00 | 0.00 | 51 | 1005.5 |
| 20260903014504 | 29 | 334 | 0.0 | 0.0 | 0.00 | 0.00 | 0.00 | 50 | 1005.6 |
| 20260903013003 | 30 | 334 | 0.0 | 1.6 | 0.00 | 0.00 | 0.00 | 47 | 1005.4 |
| 20260903011502 | 30 | 341 | 3.2 | 6.4 | 0.00 | 0.00 | 0.00 | 46 | 1005.2 |
| 20260903010002 | 31 | 318 | 4.8 | 9.7 | 0.00 | 0.00 | 0.00 | 43 | 1005.2 |
| 20260903004501 | 32 | 289 | 3.2 | 6.4 | 0.00 | 0.00 | 0.00 | 43 | 1005.0 |
| 20260903003114 | 31 | 262 | 0.0 | 6.4 | 0.00 | 0.00 | 0.00 | 43 | 1005.1 |
| 20260903001600 | 32 | 332 | 1.6 | 8.0 | 0.00 | 0.00 | 0.00 | 42 | 1005.1 |
| 20260903000108 | 32 | 322 | 4.8 | 8.0 | 0.00 | 0.00 | 0.00 | 42 | 1005.0 |
| 20260902234605 | 34 | 299 | 1.6 | 8.0 | 0.00 | 0.00 | 0.00 | 38 | 1005.0 |
| 20260902233059 | 34 | 318 | 4.8 | 11.3 | 0.00 | 0.00 | 0.00 | 39 | 1004.9 |
| 20260902231556 | 33 | 269 | 4.8 | 12.9 | 0.00 | 0.00 | 0.00 | 38 | 1005.2 |
| 20260902230105 | 33 | 224 | 4.8 | 11.3 | 0.00 | 0.00 | 0.00 | 39 | 1005.4 |
| 20260902224610 | 33 | 218 | 4.8 | 14.5 | 0.00 | 0.00 | 0.00 | 40 | 1005.6 |
| 20260902223110 | 32 | 72 | 6.4 | 12.9 | 0.00 | 0.00 | 0.00 | 42 | 1005.6 |
| 20260902221558 | 32 | 278 | 3.2 | 9.7 | 0.00 | 0.00 | 0.00 | 40 | 1005.7 |
| 20260902220051 | 31 | 268 | 3.2 | 11.3 | 0.00 | 0.00 | 0.00 | 40 | 1005.9 |
| 20260902214615 | 32 | 256 | 4.8 | 12.9 | 0.00 | 0.00 | 0.00 | 41 | 1005.9 |
| 20260902213051 | 32 | 295 | 3.2 | 14.5 | 0.00 | 0.00 | 0.00 | 40 | 1005.8 |
| 20260902211551 | 33 | 242 | 9.7 | 19.3 | 0.00 | 0.00 | 0.00 | 39 | 1006.0 |
| 20260902210050 | 34 | 272 | 4.8 | 16.1 | 0.00 | 0.00 | 0.00 | 38 | 1006.0 |
| 20260902204546 | 34 | 327 | 8.0 | 17.7 | 0.00 | 0.00 | 0.00 | 38 | 1006.1 |
| 20260902203043 | 34 | 310 | 6.4 | 12.9 | 0.00 | 0.00 | 0.00 | 39 | 1006.4 |
| 20260902201550 | 34 | 252 | 8.0 | 12.9 | 0.00 | 0.00 | 0.00 | 39 | 1006.4 |
| 20260902200039 | 33 | 330 | 4.8 | 12.9 | 0.00 | 0.00 | 0.00 | 40 | 1006.7 |
| 20260902194540 | 33 | 327 | 6.4 | 12.9 | 0.00 | 0.00 | 0.00 | 42 | 1007.1 |
| 20260902193034 | 33 | 301 | 4.8 | 11.3 | 0.00 | 0.00 | 0.00 | 44 | 1007.3 |
| 20260902191529 | 32 | 252 | 4.8 | 12.9 | 0.00 | 0.00 | 0.00 | 45 | 1007.6 |
| 20260902190025 | 32 | 255 | 3.2 | 14.5 | 0.00 | 0.00 | 0.00 | 43 | 1007.9 |
| 20260902184523 | 31 | 253 | 3.2 | 11.3 | 0.00 | 0.00 | 0.00 | 47 | 1008.1 |
| 20260902183021 | 32 | 299 | 4.8 | 9.7 | 0.00 | 0.00 | 0.00 | 47 | 1008.2 |
| 20260902181520 | 31 | 323 | 3.2 | 8.0 | 0.00 | 0.00 | 0.00 | 48 | 1008.4 |
| 20260902180018 | 31 | 271 | 1.6 | 8.0 | 0.00 | 0.00 | 0.00 | 50 | 1008.7 |
| 20260902174522 | 30 | 340 | 3.2 | 9.7 | 0.00 | 0.00 | 0.00 | 50 | 1008.8 |
| 20260902173013 | 30 | 270 | 3.2 | 6.4 | 0.00 | 0.00 | 0.00 | 51 | 1008.9 |
| 20260902171511 | 30 | 328 | 1.6 | 6.4 | 0.00 | 0.00 | 0.00 | 51 | 1009.0 |
| 20260902170009 | 30 | 265 | 0.0 | 3.2 | 0.00 | 0.00 | 0.00 | 53 | 1009.1 |
| 20260902164514 | 29 | 330 | 1.6 | 4.8 | 0.00 | 0.00 | 0.00 | 52 | 1009.2 |
| 20260902163008 | 29 | 262 | 0.0 | 3.2 | 0.00 | 0.00 | 0.00 | 54 | 1009.3 |
| 20260902161515 | 29 | 280 | 0.0 | 3.2 | 0.00 | 0.00 | 0.00 | 53 | 1009.2 |
| 20260902160007 | 28 | 316 | 0.0 | 3.2 | 0.00 | 0.00 | 0.00 | 55 | 1009.2 |
| 20260902154512 | 28 | 312 | 0.0 | 3.2 | 0.00 | 0.00 | 0.00 | 54 | 1009.2 |
| 20260902153001 | 28 | 266 | 0.0 | 1.6 | 0.00 | 0.00 | 0.00 | 55 | 1009.4 |
| 20260902151602 | 28 | 127 | 0.0 | 3.2 | 0.00 | 0.00 | 0.00 | 55 | 1009.3 |
| 20260902150058 | 27 | 335 | 1.6 | 4.8 | 0.00 | 0.00 | 0.00 | 59 | 1009.2 |
| 20260902144653 | 26 | 304 | 0.0 | 3.2 | 0.00 | 0.00 | 0.00 | 62 | 1009.2 |
| 20260902143051 | 27 | 85 | 0.0 | 0.0 | 0.00 | 0.00 | 0.00 | 66 | 1009.2 |
| 20260902141548 | 26 | 103 | 0.0 | 0.0 | 0.00 | 0.00 | 0.00 | 68 | 1009.1 |
| 20260902140046 | 24 | 103 | 0.0 | 0.0 | 0.00 | 0.00 | 0.00 | 74 | 1008.9 |
| 20260902134543 | 24 | 103 | 0.0 | 0.0 | 0.00 | 0.00 | 0.00 | 73 | 1008.8 |
| 20260902133054 | 23 | 103 | 0.0 | 0.0 | 0.00 | 0.00 | 0.00 | 75 | 1008.5 |
| 20260902131541 | 23 | 103 | 0.0 | 0.0 | 0.00 | 0.00 | 0.00 | 73 | 1008.4 |
| 20260902130040 | 23 | 103 | 0.0 | 0.0 | 0.00 | 0.00 | 0.00 | 72 | 1008.4 |
| 20260902124539 | 23 | 103 | 0.0 | 0.0 | 0.00 | 0.00 | 0.00 | 72 | 1008.5 |
| 20260902123038 | 23 | 103 | 0.0 | 1.6 | 0.00 | 0.00 | 0.00 | 72 | 1008.3 |
| 20260902121537 | 23 | 103 | 0.0 | 0.0 | 0.00 | 0.00 | 0.00 | 74 | 1008.3 |
| 20260902120037 | 22 | 103 | 0.0 | 0.0 | 0.00 | 0.00 | 0.00 | 75 | 1008.4 |
| 20260902114541 | 22 | 103 | 0.0 | 0.0 | 0.00 | 0.00 | 0.00 | 77 | 1008.3 |
| 20260902113049 | 22 | 103 | 0.0 | 0.0 | 0.00 | 0.00 | 0.00 | 74 | 1008.3 |
| 20260902111531 | 23 | 103 | 0.0 | 0.0 | 0.00 | 0.00 | 0.00 | 73 | 1008.2 |
| 20260902110029 | 23 | 103 | 0.0 | 0.0 | 0.00 | 0.00 | 0.00 | 71 | 1008.2 |
| 20260902104535 | 24 | 103 | 0.0 | 0.0 | 0.00 | 0.00 | 0.00 | 68 | 1008.3 |